CZ-6A DEB

Satellite information

Favourite Embed

Satellite Type and Status

DEBRISIN ORBIT

Key statistics

Satellite CZ-6A DEB at a glance.

Uptime

1033

Days in orbit

Revolutions

≈ 14.5

Per day

Orbit

SSO

Sun Synchronous Orbit

Inclination

98.6

Latest

Satellite identification and parameters

Extended collection of information and parameters for CZ-6A DEB.

Object identification

Identified? True

Debris? True

Object name: CZ-6A DEB

International designator: 2022-151AFD

Object number (NORAD): 56629

Object ID (CCSDS): 56629

Country: PEOPLES REPUBLIC OF CHINA (PRC)

Current information (Y/N): Y

RCS size: SMALL

Orbital parameters

Period: 98.975 minutes

Inclination: 98.6411 deg

SMA: 7087.773 km

Apoapsis: 768.16 km

Periapsis: 651.116 km

RAAN: 287.5267 deg

Eccentricy: 0.00825679

Argument of periapsis: 115.338 deg

Mean anomaly: 245.6396 deg

Mean motion: 14.54916445 rev/day

Mean motion (dot): 0.00008301 rev/day2

B* drag term: 0.0018544488 1/REarth

Two-line elements (TLE)

Creation date: Sept. 8, 2025, 9:49 a.m.

Reference frame: TEME

Reference center: EARTH

Epoch: Sept. 8, 2025, 1:36 a.m. UTC

TLE line 0: 0 CZ-6A DEB

TLE line 1: 1 56629U 22151AFD 25251.06691427 .00008301 00000-0 18544-2 0 9995

TLE line 2: 2 56629 98.6411 287.5267 0082568 115.3380 245.6396 14.54916445125541

Live tracking on map

Real-time ground track for satellite CZ-6A DEB.

In-orbit conjunctions

A list of the most updated potential collisions computed for object CZ-6A DEB.

Target Orbit TCA Probability of collision Miss distance Type
TRAILBLAZER 2 LEO 2025-06-13 00:51:42 0.0001309713 262.0 (m) PAYLOAD
THOR BURNER 2 R/B SSO 2024-08-30 06:19:03 0.0005045805 206.0 (m) ROCKET BODY

Associated space launch

Chinese satellite reported for atmospheric/ocean/environmental/spatial parameter research purposes, details TBD.

CZ-6A DEB was lifted into orbit during the mission ‘Long March 6A | Yunhai 3’, on board a Long March 6A space rocket.

The launch took place on Nov. 11, 2022, 10:52 p.m. from Launch Complex 9A.

For more information about the launch, click the button.

Launch to space Long March 6A | Yunhai 3
Long March 6A | Yunhai 3

Agency: N/A

Status: Launch Successful

Launch date: Nov. 11, 2022, 10:52 p.m. UTC

Rocket: Long March 6A

Launch pad: Launch Complex 9A

Location: Taiyuan Satellite Launch Center, People's Republic of China

...

Latest news about this satellite

There are no fresh news available about this satellite. Check back as we update our databases every day.


Newsletter sign-up

Weekly statistics, charts and insights to help you stay on top of the space industry.